Home   Weather   Erlangen   Past weeks

Flag for Germany Past Weather in Erlangen, Bavaria, Germany — Yesterday and Last 2 Weeks

Now
52 °F

Clear.


Feels Like: 48 °F
Forecast: 41 / 54 °F
Wind: 10 mph from East

Location: Nuernberg

Current Time: Apr 30, 2017 at 10:57:42 pm

Latest Report: Apr 30, 2017 at 10:20 pm


Visibility: 10 mi

Pressure: 29.80 "Hg

Humidity: 54%

Dew Point: 36 °F

Location of ErlangenLocation

Past Weather in Erlangen — Graph

°F

Erlangen Temperature Yesterday

Maximum temperature yesterday: 55 °F (at 6:20 pm)
Minimum temperature yesterday: 39 °F (at 11:20 pm)
Average temperature yesterday: 46 °F

High & Low Weather Summary for the Past Weeks

 TemperatureHumidityPressure
High63 °F (Apr 30, 5:20 pm)100% (Apr 17, 11:50 am)30.54 "Hg (Apr 17, 11:50 am)
Low27 °F (Apr 20, 5:20 am)31% (Apr 24, 4:20 pm)29.71 "Hg (Apr 25, 2:50 am)
Average43 °F72%30.09 "Hg
* Reported Apr 15 9:20 pm — Apr 30 9:50 pm, Erlangen, Weather by CustomWeather, © 2017

Note: Actual official high and low records may vary slightly from our data, if they occured in-between our weather recording intervals... More about our weather records

Advertising

Erlangen Weather History for the Previous 24 Hours

Scroll right to see more
 ConditionsComfort  
Time TempWeatherWind HumidityBarometerVisibility
9:50 pm
Sun, Apr 30
54 °FPassing clouds.10 mph51%29.80 "HgN/A
9:20 pm55 °FPassing clouds.12 mph47%29.80 "HgN/A
8:50 pm55 °FClear.12 mph47%29.80 "Hg10 mi
8:20 pm57 °FPassing clouds.10 mph44%29.80 "HgN/A
7:50 pm59 °FPassing clouds.12 mph42%29.80 "HgN/A
7:20 pm59 °FPassing clouds.10 mph42%29.80 "HgN/A
6:50 pm61 °FPassing clouds.14 mph42%29.80 "HgN/A
6:20 pm61 °FPassing clouds.13 mph42%29.83 "HgN/A
5:50 pm61 °FPassing clouds.14 mph42%29.83 "HgN/A
5:20 pm63 °FPassing clouds.14 mph39%29.83 "HgN/A
4:50 pm61 °FPassing clouds.14 mph39%29.86 "HgN/A
4:20 pm61 °FPassing clouds.13 mph42%29.86 "HgN/A
3:50 pm61 °FPassing clouds.15 mph39%29.89 "HgN/A
3:20 pm61 °FPassing clouds.15 mph42%29.89 "HgN/A
2:50 pm59 °FPassing clouds.14 mph42%29.89 "HgN/A
2:20 pm59 °FPassing clouds.14 mph42%29.92 "HgN/A
1:50 pm59 °FPassing clouds.14 mph42%29.92 "HgN/A
1:20 pm59 °FPassing clouds.13 mph42%29.95 "HgN/A
12:50 pm57 °FPassing clouds.15 mph41%29.95 "HgN/A
12:20 pm57 °FPassing clouds.15 mph44%29.98 "HgN/A
11:50 am57 °FPassing clouds.16 mph44%29.98 "HgN/A
11:20 am55 °FPassing clouds.16 mph51%29.98 "HgN/A
10:50 am54 °FPassing clouds.14 mph54%29.98 "HgN/A
10:20 am52 °FPassing clouds.9 mph58%30.01 "HgN/A
9:50 am50 °FPassing clouds.9 mph67%30.01 "HgN/A
9:20 am48 °FPassing clouds.12 mph71%30.04 "HgN/A
8:50 am46 °FPassing clouds.14 mph76%30.01 "HgN/A
8:20 am45 °FPassing clouds.10 mph81%30.04 "HgN/A
7:55 am43 °FPassing clouds.10 mph81%30.04 "HgN/A
7:50 am43 °FPassing clouds.10 mph81%30.04 "HgN/A
7:20 am41 °FPassing clouds.9 mph87%30.04 "HgN/A
6:50 am41 °FPassing clouds.10 mph87%30.04 "HgN/A
6:20 am39 °FSunny.10 mph87%30.04 "Hg10 mi
5:50 am39 °FClear.9 mph87%30.04 "Hg10 mi
5:20 am39 °FClear.10 mph87%30.04 "Hg10 mi
4:50 am37 °FClear.9 mph93%30.04 "Hg10 mi
4:20 am36 °FClear.9 mph93%30.04 "Hg10 mi
3:50 am34 °FClear.9 mph93%30.04 "Hg10 mi
3:20 am36 °FPassing clouds.6 mph93%30.04 "HgN/A
2:50 am36 °FClear.No wind87%30.04 "Hg10 mi
2:20 am36 °FChilly.No wind93%30.04 "HgN/A
1:50 am36 °FClear.1 mph87%30.04 "Hg10 mi
1:20 am37 °FClear.6 mph87%30.04 "Hg10 mi
12:50 am39 °FClear.6 mph81%30.04 "Hg10 mi
12:20 am37 °FClear.6 mph87%30.04 "Hg10 mi
11:50 pm
Sat, Apr 29
41 °FClear.5 mph76%30.04 "Hg10 mi
11:20 pm39 °FClear.5 mph75%30.04 "Hg10 mi
10:50 pm43 °FClear.1 mph71%30.04 "Hg10 mi
10:35 pm45 °FClear.1 mph66%30.04 "Hg10 mi
Weather by CustomWeather, © 2017

See weather overviewHow to use our weather pages